Wind_Speed
41 41 41 41 40 40 41 41 43 42 42 42 43 43 43 44 44 45 45 45 44 43 43 43 43 44 44 43 44 44 45 45 45 45 45 44 44 44 45 45 45 45 46 46
41 40 41 41 39 40 41 41 42 42 43 43 44 44 44 45 45 45 45 44 43 43 43 43 43 44 44 43 44 44 44 44 44 44 43 43 43 43 43 44 44 45 45 45
41 40 41 41 40 40 41 41 42 43 43 43 44 44 45 45 46 45 45 44 43 42 43 43 43 44 44 43 43 43 43 43 43 43 42 42 43 42 42 42 43 43 43 43
41 41 42 41 40 40 41 41 42 43 43 44 44 44 45 45 45 45 44 44 43 43 43 43 44 44 43 42 42 43 43 42 41 41 41 41 41 41 40 41 41 41 41 41
41 41 42 40 40 41 41 41 42 43 44 44 44 44 44 44 44 44 45 44 44 44 44 44 44 44 43 42 42 42 42 41 40 39 39 38 38 39 39 39 39 39 40 40
40 42 42 41 41 41 43 42 42 43 43 44 44 44 43 44 44 44 44 44 44 44 44 44 44 43 43 42 42 42 41 40 39 38 38 37 37 38 37 37 37 37 38 39
41 42 42 42 41 41 42 42 42 42 43 44 44 44 43 43 44 44 44 44 44 44 44 44 43 43 43 42 42 42 41 39 38 37 37 36 36 36 36 36 36 36 37 37
40 42 41 41 41 41 42 42 43 43 43 43 43 43 43 43 43 43 43 43 44 43 43 43 43 42 42 42 41 41 40 39 37 36 36 36 35 35 34 34 34 34 33 34
40 40 40 40 41 41 41 42 42 42 42 43 43 43 43 43 43 43 43 43 43 43 43 42 42 42 41 40 40 39 38 37 36 35 35 34 33 33 32 32 32 32 32 31
40 39 39 40 40 41 41 41 41 42 42 42 43 43 43 43 43 43 43 43 43 42 42 42 42 42 40 39 38 37 36 34 34 34 33 32 32 31 31 30 30 30 30 30
39 38 38 39 39 40 41 41 41 41 42 42 43 43 43 43 43 43 43 42 42 41 41 41 40 39 38 37 36 35 34 34 33 32 31 31 30 30 29 29 29 29 29 29
37 38 38 39 39 40 41 41 41 41 42 42 42 43 43 43 43 42 41 41 41 40 39 38 37 36 36 35 34 33 32 32 31 31 30 29 28 28 27 27 27 28 28 28
38 38 39 39 39 40 41 41 41 42 42 42 42 42 42 41 41 41 40 39 38 38 37 36 35 34 34 33 32 32 31 30 30 30 29 28 27 26 25 26 26 26 26 26
38 38 38 39 39 40 40 41 41 41 41 41 41 41 41 40 40 39 38 38 37 36 35 34 33 33 33 32 31 31 30 29 29 28 27 26 25 25 24 24 24 24 25 25
37 37 38 38 39 40 40 40 40 40 40 40 40 40 40 39 38 38 37 37 36 34 33 33 33 33 33 31 30 30 29 28 28 27 26 25 24 24 23 23 23 24 24 25
37 37 37 38 39 39 39 40 40 39 39 39 39 39 38 38 37 37 36 36 34 34 33 32 32 32 31 30 29 28 28 27 27 26 25 24 24 23 23 23 23 23 23 23
36 36 37 37 38 38 39 39 39 39 38 38 38 38 37 36 35 36 36 35 34 33 32 32 32 31 30 28 27 27 26 26 26 25 25 24 23 23 23 23 22 21 21 22
35 36 37 37 37 37 37 37 37 37 37 37 36 36 35 35 34 35 35 34 33 33 32 31 31 30 29 28 27 26 26 25 25 25 24 23 23 22 22 22 21 21 21 20
35 35 36 36 36 36 36 36 36 36 35 35 35 35 35 34 34 34 34 33 32 31 31 30 29 29 28 27 26 25 24 24 23 23 22 22 22 22 21 21 20 20 20 19
33 34 35 35 35 35 35 35 34 34 33 33 34 34 34 34 33 33 33 32 31 30 30 29 28 28 27 26 25 24 23 22 21 21 21 21 21 21 21 20 20 19 19 19
33 34 34 33 33 33 32 32 32 32 32 32 33 33 33 32 32 32 31 31 31 30 29 29 28 27 26 24 23 22 21 21 20 20 20 20 20 20 20 20 20 19 19 19
33 33 32 32 31 31 31 30 31 31 31 31 31 31 31 31 31 31 31 30 29 29 28 27 26 25 24 23 22 21 20 20 19 19 18 18 18 19 19 19 19 19 18 18
32 31 31 31 31 31 31 30 30 30 30 30 30 30 30 30 30 30 29 29 28 27 26 26 24 23 22 21 20 20 19 18 18 18 18 18 18 19 19 19 19 18 17 17
29 29 29 29 29 29 30 29 29 29 29 29 29 29 28 28 28 28 28 27 26 26 25 24 22 21 20 19 19 18 18 18 18 18 18 18 19 19 19 19 19 18 17 16
27 28 27 27 27 28 28 28 28 29 28 29 29 28 28 27 27 27 27 26 25 24 23 22 20 19 19 18 18 18 18 18 18 18 18 19 19 19 19 18 18 18 17 16
26 26 26 26 26 26 26 26 26 26 26 27 27 27 27 26 26 26 25 24 23 22 21 20 19 18 18 18 18 18 18 18 18 18 19 19 19 19 19 18 18 18 17 16
25 25 25 25 25 25 25 25 25 25 25 25 25 26 25 25 25 24 24 23 22 22 21 20 19 19 18 18 18 18 18 18 19 19 19 19 19 19 19 19 18 17 16 16
Wind_Direction
294 294 295 295 297 297 297 297 297 299 298 300 300 301 300 300 300 299 298 298 299 298 297 297 297 297 297 296 294 292 291 290 289 287 285 283 280 277 275 272 270 269 268 266
294 294 294 294 296 297 298 298 298 298 299 300 300 300 301 301 301 301 300 299 299 298 297 297 298 298 297 297 296 295 293 291 289 287 285 283 281 279 277 275 272 270 269 267
294 294 294 295 299 298 298 299 299 300 300 300 300 300 300 300 301 301 300 299 299 299 298 298 298 299 297 297 297 296 294 293 290 288 286 284 283 281 279 277 274 272 270 268
294 294 294 299 299 299 299 299 300 300 301 300 300 300 300 300 301 300 300 299 299 299 298 298 298 298 298 299 298 298 296 294 292 290 288 286 284 282 280 278 276 274 271 270
294 295 296 298 299 299 299 300 301 301 300 300 300 300 300 301 301 301 300 299 299 299 299 298 298 298 299 298 298 298 296 295 294 292 290 288 286 284 282 280 278 276 274 271
293 294 296 299 299 299 300 301 302 301 301 301 300 300 301 301 301 301 300 299 299 299 299 299 299 299 299 298 298 298 298 295 293 293 291 289 287 286 284 281 279 277 275 273
293 294 296 299 300 301 301 303 303 302 302 302 301 301 301 301 302 301 300 299 299 300 301 301 300 299 298 298 297 297 297 297 294 292 292 290 289 287 285 283 281 278 276 274
293 294 297 299 299 300 300 301 302 302 303 303 302 302 302 302 302 302 301 300 300 300 301 302 301 300 299 298 298 297 297 296 294 293 293 292 290 288 286 284 282 279 277 276
292 294 296 297 298 299 300 300 301 301 302 302 303 303 303 303 302 303 302 301 301 301 301 302 301 301 300 299 299 299 298 296 294 294 294 293 291 288 286 284 282 280 278 277
292 293 295 296 298 299 300 300 300 301 301 302 303 303 303 303 303 303 302 301 301 301 301 301 302 302 301 300 300 299 298 296 295 295 294 293 291 289 287 285 282 281 280 278
290 292 293 295 296 298 299 299 300 301 301 302 302 303 304 304 304 303 303 302 302 302 302 302 303 302 302 301 301 300 298 297 296 296 296 295 292 290 287 286 283 281 280 279
290 292 293 295 296 297 298 299 300 301 301 302 302 304 305 305 305 304 303 303 303 303 303 303 303 303 303 302 302 301 299 298 297 296 296 296 295 294 291 288 286 282 280 280
289 292 293 295 296 298 299 300 300 301 302 303 304 305 306 306 306 306 305 305 304 304 304 303 303 304 304 303 303 302 301 300 300 299 297 296 296 295 293 291 289 286 282 281
290 292 293 295 297 298 300 301 301 302 303 304 305 305 306 306 306 306 306 306 305 305 304 304 304 304 304 304 304 303 301 301 301 300 298 298 296 295 293 292 290 287 286 284
290 292 294 296 297 298 300 301 302 303 304 304 304 305 306 306 307 307 307 307 306 305 305 305 305 304 304 304 303 302 301 302 302 300 299 298 297 296 295 293 291 287 286 285
291 292 294 296 298 299 300 301 302 303 304 304 305 305 306 307 307 307 308 308 306 305 305 305 305 305 305 304 302 301 301 302 302 300 299 298 298 297 296 295 294 292 288 286
291 293 294 296 298 298 300 301 303 304 304 305 306 307 307 308 307 308 309 309 307 305 305 305 306 306 305 304 303 301 301 302 303 302 300 299 299 299 298 296 295 295 294 291
294 295 297 298 299 299 300 302 303 304 305 306 307 308 309 309 309 309 310 309 308 307 306 306 306 306 305 304 303 302 301 302 303 302 300 299 299 300 299 297 296 297 297 297
295 297 298 299 299 300 301 302 303 304 304 305 306 308 309 309 309 310 311 311 310 308 307 306 306 306 306 305 303 302 301 301 302 303 302 301 301 301 300 298 297 297 298 298
297 298 299 300 301 301 302 303 303 303 304 305 307 308 309 309 309 310 311 311 311 309 308 307 306 306 306 306 305 303 301 301 302 303 303 303 302 303 302 300 298 297 297 298
299 300 300 301 301 301 303 303 303 304 304 306 308 309 309 309 310 311 312 311 311 310 309 307 306 305 305 305 305 304 303 302 302 303 303 303 303 305 304 303 301 299 297 295
300 300 301 301 302 302 303 304 304 305 306 307 309 310 310 310 311 312 313 313 312 311 310 309 307 305 305 304 304 304 304 303 303 303 304 304 304 305 306 306 304 301 298 296
301 301 302 302 302 302 302 304 305 306 307 308 310 311 312 312 312 313 314 314 314 313 312 311 309 308 307 307 306 306 306 304 304 304 304 304 305 306 307 308 306 304 300 296
302 303 303 304 305 305 305 305 305 306 308 310 310 311 312 313 313 314 315 315 315 315 315 314 312 310 309 309 309 309 308 307 307 306 305 304 305 306 306 307 307 304 301 297
303 304 305 306 307 308 309 308 307 307 309 310 311 312 312 313 314 315 315 316 316 316 316 316 314 313 312 312 311 310 310 310 309 307 306 305 306 306 307 307 307 304 300 297
305 307 308 309 309 310 312 312 311 311 312 312 313 314 315 315 315 316 317 317 317 317 316 315 315 314 313 313 313 313 312 312 312 310 308 308 307 306 306 306 306 303 298 296
307 309 310 310 310 311 313 314 314 315 315 316 316 316 316 316 316 317 317 317 317 316 316 314 313 312 312 313 313 313 314 314 314 313 311 311 309 307 306 306 304 302 298 295
Height
5642 5638 5634 5631 5628 5623 5619 5615 5611 5608 5604 5600 5595 5590 5585 5580 5575 5571 5566 5561 5557 5552 5548 5543 5539 5534 5529 5525 5520 5516 5513 5509 5505 5502 5499 5496 5494 5492 5491 5490 5489 5489 5489 5489
5632 5628 5624 5621 5619 5614 5610 5605 5601 5597 5594 5590 5584 5579 5575 5570 5565 5560 5555 5551 5546 5541 5537 5533 5528 5523 5518 5513 5509 5504 5500 5496 5493 5490 5487 5484 5482 5480 5478 5477 5476 5475 5475 5475
5622 5618 5613 5612 5611 5605 5600 5596 5592 5587 5584 5578 5574 5569 5564 5559 5554 5549 5545 5540 5535 5531 5526 5521 5516 5511 5507 5502 5497 5493 5488 5484 5481 5477 5475 5472 5469 5467 5465 5464 5463 5462 5462 5461
5610 5608 5604 5605 5600 5595 5590 5587 5582 5576 5572 5568 5563 5558 5553 5548 5543 5538 5534 5529 5525 5520 5515 5510 5505 5500 5495 5490 5486 5481 5477 5473 5469 5465 5463 5460 5457 5455 5453 5452 5450 5449 5449 5448
5600 5596 5594 5594 5590 5584 5580 5577 5572 5566 5562 5557 5552 5547 5543 5537 5532 5528 5523 5518 5514 5509 5504 5499 5494 5488 5483 5479 5474 5470 5465 5461 5457 5454 5451 5448 5446 5443 5441 5440 5438 5437 5436 5436
5590 5586 5583 5585 5580 5574 5570 5567 5563 5556 5551 5546 5541 5537 5534 5527 5522 5517 5512 5507 5502 5497 5492 5487 5482 5477 5472 5467 5463 5458 5454 5450 5446 5443 5440 5437 5435 5432 5430 5428 5427 5425 5424 5423
5580 5575 5573 5573 5568 5563 5560 5557 5551 5546 5541 5536 5531 5527 5522 5517 5512 5506 5501 5496 5491 5486 5481 5476 5471 5466 5461 5456 5451 5447 5443 5439 5435 5432 5429 5426 5424 5421 5419 5417 5415 5414 5413 5412
5570 5566 5567 5562 5557 5554 5550 5545 5540 5535 5530 5525 5521 5516 5511 5506 5501 5496 5491 5485 5480 5475 5470 5464 5459 5455 5450 5445 5440 5436 5431 5428 5424 5421 5418 5416 5413 5410 5408 5406 5404 5403 5402 5401
5562 5560 5555 5551 5547 5543 5539 5535 5530 5525 5520 5515 5510 5506 5501 5495 5490 5485 5480 5475 5469 5464 5459 5454 5448 5443 5439 5434 5429 5425 5421 5417 5414 5411 5408 5405 5403 5400 5398 5396 5395 5393 5392 5391
5551 5549 5545 5541 5537 5533 5529 5524 5519 5515 5510 5505 5500 5495 5490 5485 5479 5474 5469 5464 5459 5453 5448 5443 5438 5433 5428 5424 5420 5415 5411 5408 5405 5402 5399 5396 5393 5391 5389 5387 5385 5384 5383 5382
5541 5539 5535 5531 5527 5523 5518 5514 5509 5505 5500 5495 5490 5485 5480 5474 5469 5463 5458 5453 5448 5443 5438 5433 5428 5423 5418 5414 5410 5406 5402 5399 5396 5393 5390 5387 5384 5382 5380 5379 5376 5375 5374 5373
5531 5529 5525 5522 5517 5513 5508 5504 5499 5495 5490 5485 5480 5475 5469 5464 5458 5453 5448 5443 5438 5433 5428 5423 5418 5414 5409 5405 5401 5397 5394 5391 5387 5384 5382 5379 5376 5374 5371 5370 5368 5366 5365 5364
5521 5518 5514 5511 5507 5503 5498 5494 5489 5485 5480 5475 5470 5464 5459 5454 5448 5443 5438 5433 5428 5423 5418 5414 5409 5405 5401 5397 5393 5389 5386 5383 5379 5376 5374 5371 5369 5367 5365 5362 5360 5358 5357 5356
5510 5507 5504 5501 5497 5493 5488 5484 5479 5474 5470 5465 5460 5455 5450 5444 5439 5434 5429 5424 5419 5414 5410 5405 5401 5397 5393 5389 5385 5382 5378 5375 5372 5369 5366 5364 5362 5360 5358 5356 5354 5351 5350 5348
5501 5497 5494 5491 5487 5482 5478 5474 5469 5464 5460 5455 5450 5445 5440 5435 5430 5425 5420 5415 5410 5406 5401 5397 5393 5389 5385 5381 5378 5374 5371 5368 5365 5362 5360 5357 5355 5353 5351 5349 5347 5345 5343 5341
5491 5487 5484 5480 5477 5472 5468 5463 5459 5455 5450 5445 5441 5436 5431 5426 5421 5416 5411 5406 5402 5398 5393 5389 5385 5381 5377 5374 5370 5367 5364 5361 5358 5356 5353 5351 5348 5346 5344 5342 5340 5338 5336 5335
5480 5477 5474 5471 5467 5462 5458 5454 5449 5445 5440 5436 5431 5427 5422 5417 5412 5407 5403 5398 5393 5389 5385 5381 5377 5373 5370 5366 5363 5360 5357 5354 5351 5349 5346 5344 5342 5340 5338 5336 5334 5332 5330 5328
5470 5467 5464 5460 5457 5452 5448 5444 5440 5436 5431 5427 5422 5418 5413 5409 5404 5399 5395 5390 5385 5381 5377 5374 5370 5366 5362 5359 5356 5353 5351 5348 5345 5342 5340 5338 5336 5334 5332 5330 5328 5326 5324 5322
5461 5458 5454 5451 5447 5443 5439 5435 5431 5427 5422 5418 5414 5409 5405 5401 5396 5392 5387 5382 5378 5374 5370 5366 5362 5359 5355 5352 5349 5346 5344 5341 5339 5336 5334 5332 5330 5328 5326 5324 5322 5320 5318 5316
5452 5448 5445 5441 5437 5434 5430 5426 5422 5418 5414 5410 5406 5401 5397 5393 5388 5384 5379 5375 5370 5366 5362 5358 5355 5352 5349 5346 5343 5340 5337 5335 5333 5330 5328 5326 5324 5322 5320 5318 5316 5314 5313 5311
5443 5439 5436 5432 5428 5425 5421 5417 5413 5409 5405 5401 5397 5393 5389 5385 5380 5376 5372 5367 5363 5359 5355 5351 5348 5345 5342 5339 5337 5334 5331 5329 5327 5325 5322 5320 5318 5316 5314 5312 5311 5309 5307 5305
5434 5430 5427 5423 5420 5416 5413 5409 5405 5401 5397 5393 5389 5385 5381 5377 5373 5369 5364 5360 5356 5352 5348 5344 5341 5338 5336 5333 5331 5328 5326 5324 5321 5319 5317 5315 5313 5311 5309 5307 5305 5303 5302 5300
5425 5422 5418 5415 5411 5408 5405 5401 5397 5393 5390 5386 5382 5378 5374 5370 5366 5362 5358 5353 5349 5345 5342 5338 5335 5332 5330 5327 5325 5323 5320 5318 5316 5314 5312 5310 5308 5306 5304 5302 5300 5298 5296 5294
5417 5414 5410 5407 5403 5400 5397 5393 5389 5386 5382 5378 5375 5371 5367 5363 5359 5355 5351 5347 5343 5339 5336 5332 5329 5327 5324 5322 5320 5318 5316 5314 5311 5309 5308 5306 5303 5301 5299 5297 5295 5293 5291 5289
5410 5407 5403 5400 5396 5393 5389 5386 5382 5379 5375 5371 5368 5364 5360 5357 5353 5349 5345 5341 5337 5334 5330 5327 5324 5322 5319 5317 5315 5313 5311 5309 5307 5305 5303 5301 5299 5296 5294 5292 5290 5288 5286 5284
5403 5400 5396 5393 5390 5386 5383 5379 5376 5372 5369 5365 5361 5358 5354 5350 5347 5343 5339 5335 5332 5329 5326 5323 5320 5318 5315 5313 5311 5309 5307 5304 5302 5300 5298 5296 5294 5291 5289 5287 5285 5283 5281 5280
5397 5393 5390 5387 5384 5380 5377 5374 5370 5367 5363 5360 5356 5352 5348 5345 5341 5338 5334 5330 5327 5324 5321 5318 5316 5313 5311 5309 5307 5304 5302 5300 5298 5295 5293 5291 5289 5286 5284 5282 5280 5278 5276 5275